FENGYUN 1C DEB

基本信息
目录编号:
29998
目录名称:
FENGYUN 1C DEB
国际标识:
1999-025LY
轨道中心:
EARTH
物体状态:
在轨
发射日期:
1999-05-10 UTC
轨道信息
数据来源: 国际轨道数据
星历时间: 2026-09-10T19:33:18+0800
半长轴: 7171.306km
偏心率: 0.000434
轨道倾角: 99.287°
近地点辐角: 243.758°
升交点赤经: 336.685°
平近点角: 116.315°
近地点: 790.056km
远地点: 796.282km
周期: 100.730分钟
每日圈数: 14.295701
详细信息
发射场:
TSC
轨道高度:
LEO
数据来源:
AOE Integration Group
参考系:
TEME
时间系统:
UTC
历元类型:
SGP4
2D轨道图
3D轨道图
轨道高度分析图
轨道倾角分析图
轨道综合分析图
查看轨道综合分析图